• în Republica Moldova
  • Lista ţărilor
  • Pe 7 zile
  • Temperatura apei
  • Hartă satelitară
  • Meteo pe hartă
  • Widget-uri
  • user-avatar
    Intrare

    Meteo pe oră la Ondjiwa

    Astăzi, 29 Mai, Luni

    Timp Temperatura Precipitaţii Vânt Presiune Umiditate
    00:00 +21°C° 0 mm 2 m/s 670 mmHg 38%
    01:00 +22°C° 0 mm 3 m/s 670 mmHg 34%
    02:00 +21°C° 0 mm 3 m/s 670 mmHg 36%
    03:00 +20°C° 0 mm 3 m/s 670 mmHg 37%
    04:00 +20°C° 0 mm 3 m/s 670 mmHg 38%
    05:00 +19°C° 0 mm 3 m/s 670 mmHg 39%
    06:00 +19°C° 0 mm 3 m/s 670 mmHg 40%
    07:00 +18°C° 0 mm 3 m/s 670 mmHg 41%
    08:00 +21°C° 0 mm 3 m/s 671 mmHg 36%
    09:00 +25°C° 0 mm 4 m/s 672 mmHg 30%
    10:00 +28°C° 0 mm 5 m/s 672 mmHg 25%
    11:00 +30°C° 0 mm 4 m/s 672 mmHg 23%
    12:00 +32°C° 0 mm 4 m/s 672 mmHg 21%
    13:00 +33°C° 0 mm 4 m/s 671 mmHg 20%
    14:00 +33°C° 0 mm 3 m/s 671 mmHg 20%
    15:00 +31°C° 0 mm 3 m/s 670 mmHg 21%
    16:00 +31°C° 0 mm 2 m/s 670 mmHg 22%
    17:00 +29°C° 0 mm 2 m/s 670 mmHg 24%
    18:00 +27°C° 0 mm 2 m/s 670 mmHg 27%
    19:00 +26°C° 0 mm 3 m/s 670 mmHg 30%
    20:00 +25°C° 0 mm 3 m/s 670 mmHg 30%
    21:00 +25°C° 0 mm 3 m/s 671 mmHg 31%
    22:00 +23°C° 0 mm 4 m/s 671 mmHg 32%
    23:00 +22°C° 0 mm 4 m/s 671 mmHg 34%

    Mâine, 30 Mai, Marţi

    Timp Temperatura Precipitaţii Vânt Presiune Umiditate
    00:00 +21°C° 0 mm 4 m/s 670 mmHg 37%
    01:00 +19°C° 0 mm 3 m/s 670 mmHg 39%
    02:00 +18°C° 0 mm 3 m/s 670 mmHg 43%
    03:00 +17°C° 0 mm 2 m/s 670 mmHg 46%
    04:00 +16°C° 0 mm 2 m/s 669 mmHg 49%
    05:00 +16°C° 0 mm 2 m/s 670 mmHg 50%
    06:00 +16°C° 0 mm 2 m/s 670 mmHg 51%
    07:00 +16°C° 0 mm 1 m/s 670 mmHg 51%
    08:00 +20°C° 0 mm 2 m/s 671 mmHg 43%
    09:00 +24°C° 0 mm 3 m/s 672 mmHg 35%
    10:00 +27°C° 0 mm 4 m/s 673 mmHg 27%
    11:00 +29°C° 0 mm 4 m/s 672 mmHg 24%
    12:00 +30°C° 0 mm 4 m/s 672 mmHg 21%
    13:00 +33°C° 0 mm 4 m/s 672 mmHg 18%
    14:00 +31°C° 0 mm 3 m/s 671 mmHg 18%
    15:00 +31°C° 0 mm 3 m/s 671 mmHg 17%
    16:00 +31°C° 0 mm 3 m/s 670 mmHg 17%
    17:00 +28°C° 0 mm 3 m/s 670 mmHg 21%
    18:00 +25°C° 0 mm 3 m/s 670 mmHg 24%
    19:00 +22°C° 0 mm 3 m/s 669 mmHg 28%
    20:00 +21°C° 0 mm 3 m/s 670 mmHg 29%
    21:00 +20°C° 0 mm 3 m/s 670 mmHg 31%
    22:00 +20°C° 0 mm 3 m/s 670 mmHg 32%
    23:00 +19°C° 0 mm 3 m/s 670 mmHg 36%

    Poimâine, 31 Mai, Miercuri

    Timp Temperatura Precipitaţii Vânt Presiune Umiditate
    00:00 +19°C° 0 mm 4 m/s 670 mmHg 40%
    01:00 +18°C° 0 mm 4 m/s 670 mmHg 44%
    02:00 +18°C° 0 mm 3 m/s 670 mmHg 47%
    03:00 +17°C° 0 mm 3 m/s 670 mmHg 51%
    04:00 +16°C° 0 mm 2 m/s 669 mmHg 54%
    05:00 +16°C° 0 mm 2 m/s 670 mmHg 55%
    06:00 +16°C° 0 mm 3 m/s 670 mmHg 55%
    07:00 +16°C° 0 mm 3 m/s 671 mmHg 55%
    08:00 +19°C° 0 mm 4 m/s 672 mmHg 45%
    09:00 +22°C° 0 mm 5 m/s 673 mmHg 35%
    10:00 +27°C° 0 mm 6 m/s 673 mmHg 26%
    11:00 +28°C° 0 mm 5 m/s 673 mmHg 23%
    12:00 +30°C° 0 mm 5 m/s 672 mmHg 21%
    13:00 +32°C° 0 mm 4 m/s 672 mmHg 19%
    14:00 +32°C° 0 mm 4 m/s 671 mmHg 19%
    15:00 +30°C° 0 mm 4 m/s 671 mmHg 19%
    16:00 +30°C° 0 mm 3 m/s 670 mmHg 19%
    17:00 +27°C° 0 mm 3 m/s 670 mmHg 22%
    18:00 +25°C° 0 mm 3 m/s 670 mmHg 26%
    19:00 +21°C° 0 mm 3 m/s 670 mmHg 30%
    20:00 +20°C° 0 mm 3 m/s 670 mmHg 31%
    21:00 +19°C° 0 mm 3 m/s 670 mmHg 33%
    22:00 +18°C° 0 mm 3 m/s 671 mmHg 34%
    23:00 +18°C° 0 mm 3 m/s 670 mmHg 37%

    1 Iunie, Joi

    Timp Temperatura Precipitaţii Vânt Presiune Umiditate
    00:00 +17°C° 0 mm 3 m/s 670 mmHg 39%
    01:00 +16°C° 0 mm 3 m/s 670 mmHg 42%
    02:00 +16°C° 0 mm 3 m/s 669 mmHg 44%
    03:00 +14°C° 0 mm 3 m/s 669 mmHg 46%
    04:00 +14°C° 0 mm 3 m/s 669 mmHg 48%
    05:00 +14°C° 0 mm 3 m/s 670 mmHg 48%
    06:00 +13°C° 0 mm 3 m/s 670 mmHg 48%
    07:00 +13°C° 0 mm 3 m/s 671 mmHg 48%
    08:00 +18°C° 0 mm 4 m/s 672 mmHg 40%
    09:00 +21°C° 0 mm 5 m/s 672 mmHg 33%
    10:00 +26°C° 0 mm 6 m/s 673 mmHg 25%
    11:00 +27°C° 0 mm 5 m/s 673 mmHg 23%
    12:00 +28°C° 0 mm 5 m/s 672 mmHg 20%
    13:00 +30°C° 0 mm 4 m/s 671 mmHg 17%
    14:00 +30°C° 0 mm 4 m/s 671 mmHg 17%
    15:00 +29°C° 0 mm 3 m/s 670 mmHg 17%
    16:00 +29°C° 0 mm 3 m/s 670 mmHg 17%
    17:00 +26°C° 0 mm 3 m/s 670 mmHg 22%
    18:00 +22°C° 0 mm 3 m/s 670 mmHg 27%
    19:00 +20°C° 0 mm 3 m/s 669 mmHg 31%
    20:00 +19°C° 0 mm 3 m/s 670 mmHg 33%
    21:00 +18°C° 0 mm 3 m/s 670 mmHg 35%
    22:00 +18°C° 0 mm 3 m/s 670 mmHg 36%
    23:00 +17°C° 0 mm 3 m/s 670 mmHg 37%

    2 Iunie, Vineri

    Timp Temperatura Precipitaţii Vânt Presiune Umiditate
    00:00 +16°C° 0 mm 3 m/s 670 mmHg 38%
    01:00 +14°C° 0 mm 3 m/s 669 mmHg 39%
    02:00 +14°C° 0 mm 3 m/s 669 mmHg 40%
    03:00 +14°C° 0 mm 3 m/s 669 mmHg 40%
    04:00 +13°C° 0 mm 3 m/s 669 mmHg 40%
    05:00 +13°C° 0 mm 3 m/s 670 mmHg 42%
    06:00 +13°C° 0 mm 3 m/s 670 mmHg 43%
    07:00 +13°C° 0 mm 3 m/s 670 mmHg 44%
    08:00 +17°C° 0 mm 4 m/s 671 mmHg 37%
    09:00 +21°C° 0 mm 4 m/s 672 mmHg 29%
    10:00 +26°C° 0 mm 5 m/s 673 mmHg 22%
    11:00 +27°C° 0 mm 4 m/s 672 mmHg 20%
    12:00 +28°C° 0 mm 4 m/s 671 mmHg 18%
    13:00 +29°C° 0 mm 3 m/s 671 mmHg 15%
    14:00 +29°C° 0 mm 2 m/s 670 mmHg 15%
    15:00 +29°C° 0 mm 2 m/s 670 mmHg 15%
    16:00 +29°C° 0 mm 2 m/s 670 mmHg 14%
    17:00 +26°C° 0 mm 2 m/s 669 mmHg 18%
    18:00 +23°C° 0 mm 2 m/s 669 mmHg 22%
    19:00 +19°C° 0 mm 2 m/s 669 mmHg 26%
    20:00 +18°C° 0 mm 2 m/s 669 mmHg 27%
    21:00 +18°C° 0 mm 2 m/s 669 mmHg 28%
    22:00 +17°C° 0 mm 2 m/s 669 mmHg 30%
    23:00 +17°C° 0 mm 2 m/s 669 mmHg 31%

    3 Iunie, Sâmbătă

    Timp Temperatura Precipitaţii Vânt Presiune Umiditate
    00:00 +16°C° 0 mm 2 m/s 669 mmHg 32%
    01:00 +16°C° 0 mm 2 m/s 669 mmHg 33%
    02:00 +15°C° 0 mm 2 m/s 669 mmHg 35%
    03:00 +14°C° 0 mm 2 m/s 668 mmHg 37%
    04:00 +14°C° 0 mm 2 m/s 668 mmHg 40%
    05:00 +14°C° 0 mm 2 m/s 669 mmHg 42%
    06:00 +14°C° 0 mm 2 m/s 669 mmHg 44%
    07:00 +13°C° 0 mm 2 m/s 670 mmHg 47%
    08:00 +17°C° 0 mm 2 m/s 671 mmHg 40%
    09:00 +21°C° 0 mm 3 m/s 671 mmHg 33%
    10:00 +26°C° 0 mm 3 m/s 672 mmHg 27%
    11:00 +27°C° 0 mm 3 m/s 672 mmHg 23%
    12:00 +29°C° 0 mm 2 m/s 671 mmHg 20%
    13:00 +30°C° 0 mm 2 m/s 671 mmHg 17%
    14:00 +30°C° 0 mm 1 m/s 670 mmHg 17%
    15:00 +30°C° 0 mm 1 m/s 670 mmHg 17%
    16:00 +30°C° 0 mm 1 m/s 669 mmHg 16%
    17:00 +26°C° 0 mm 1 m/s 669 mmHg 21%
    18:00 +23°C° 0 mm 2 m/s 669 mmHg 26%
    19:00 +19°C° 0 mm 2 m/s 668 mmHg 31%
    20:00 +19°C° 0 mm 2 m/s 669 mmHg 32%
    21:00 +18°C° 0 mm 2 m/s 669 mmHg 33%
    22:00 +18°C° 0 mm 2 m/s 669 mmHg 34%
    23:00 +17°C° 0 mm 2 m/s 669 mmHg 35%
    Arată mai mult